Flag for Norway Weather past 2 weeks in Hammerfest, Norway

Now
43 °F

Broken clouds.


Feels Like: 38 °F
Forecast: 41 / 51 °F
Wind: 8 mph from Northeast

Location: Hammerfest

Current Time: May 30, 2015 at 6:51:58 AM

Latest Report: May 30, 2015 at 5:57 AM


Visibility: N/A

Pressure: 29.62 "Hg

Humidity: 87%

Dew point: 39 °F

Location of HammerfestLocation

Historic Weather in Hammerfest — Graph

°F

Hammerfest temperature yesterday

Maximum temperature yesterday: 43 °F (at 12:50 AM)
Minimum temperature yesterday: 39 °F (at 7:50 PM)
Average temperature yesterday: 41 °F

Past Weeks' High & Low Weather Summary

 TemperatureHumidityPressure
High57 °F (May 27, 5:50 PM)100% (May 15, 5:50 AM)30.04 "Hg (May 15, 5:50 AM)
Low32 °F (May 15, 5:50 AM)41% (May 22, 3:50 PM)29.24 "Hg (May 23, 9:50 PM)
Average40 °F78%29.72 "Hg
* Reported May 15 5:50 AM — May 30 5:57 AM, Hammerfest, Weather by CustomWeather, © 2015

Note: Actual official high and low records may vary slightly from our data, if they occured in-between our weather recording intervals... More about our weather records

Advertising

Hammerfest weather history for previous 24 hours

 ConditionsComfort  
Time TempWeatherWind HumidityBarometerVisibility
5:57 AM
Sat, May 30
43 °FBroken clouds.8 mph87%29.62 "HgN/A
4:50 AM41 °FBroken clouds.9 mph87%29.62 "HgN/A
3:50 AM39 °FScattered clouds.12 mph100%29.62 "HgN/A
2:50 AM39 °FBroken clouds.7 mph100%29.65 "HgN/A
1:50 AM39 °FBroken clouds.9 mph100%29.65 "HgN/A
1:03 AM39 °FBroken clouds.10 mph93%29.65 "HgN/A
11:50 PM
Fri, May 29
39 °FPartly sunny.7 mph100%29.65 "HgN/A
10:50 PM39 °FBroken clouds.8 mph100%29.65 "HgN/A
9:50 PM39 °FBroken clouds.9 mph100%29.65 "HgN/A
8:50 PM39 °FBroken clouds.8 mph100%29.65 "Hg6 mi
7:50 PM39 °FBroken clouds.8 mph100%29.65 "Hg4 mi
6:50 PM41 °FFog.6 mph93%29.65 "Hg4 mi
5:50 PM41 °FDrizzle. Fog.5 mph100%29.65 "Hg3 mi
4:50 PM43 °FFog.7 mph93%29.62 "Hg4 mi
3:55 PM43 °FDrizzle. Broken clouds.5 mph93%29.62 "Hg4 mi
2:50 PM41 °FDrizzle. Broken clouds.16 mph100%29.59 "Hg3 mi
1:50 PM43 °FBroken clouds.15 mph93%29.59 "HgN/A
12:50 PM41 °FBroken clouds.14 mph100%29.56 "HgN/A
11:50 AM43 °FLight rain. Broken clouds.14 mph93%29.56 "HgN/A
10:50 AM41 °FBroken clouds.14 mph100%29.56 "HgN/A
9:50 AM41 °FDrizzle. Broken clouds.14 mph100%29.53 "HgN/A
8:50 AM43 °FDrizzle. Broken clouds.12 mph100%29.50 "HgN/A
7:50 AM41 °FDrizzle. Broken clouds.12 mph100%29.50 "HgN/A
6:50 AM41 °FPartly sunny.13 mph100%29.50 "HgN/A
Weather by CustomWeather, © 2015

See weather overviewHow to use our weather pages